| time (UTC) | temp C | wind direction | speed KPH | gust KPH | rain 1hr cm | rain 24hr cm | rain mn cm | humidity % | barometer mb |
| 20260510134053 | 27 | 146 | 0.0 | 6.4 | 0.00 | 0.05 | 0.05 | 82 | 1016.8 |
| 20260510133552 | 27 | 102 | 0.0 | 6.4 | 0.00 | 0.05 | 0.05 | 83 | 1016.9 |
| 20260510133054 | 26 | 171 | 0.0 | 6.4 | 0.00 | 0.05 | 0.05 | 83 | 1016.7 |
| 20260510132554 | 26 | 0 | 0.0 | 6.4 | 0.00 | 0.05 | 0.05 | 83 | 1016.8 |
| 20260510132053 | 26 | 97 | 1.6 | 6.4 | 0.00 | 0.05 | 0.05 | 85 | 1016.8 |
| 20260510131557 | 26 | 0 | 0.0 | 8.0 | 0.00 | 0.05 | 0.05 | 86 | 1016.9 |
| 20260510131053 | 25 | 161 | 1.6 | 8.0 | 0.00 | 0.05 | 0.05 | 87 | 1016.9 |
| 20260510130552 | 25 | 117 | 1.6 | 6.4 | 0.00 | 0.05 | 0.05 | 88 | 1016.7 |
| 20260510130053 | 25 | 88 | 1.6 | 6.4 | 0.00 | 0.05 | 0.05 | 89 | 1016.7 |
| 20260510125553 | 24 | 132 | 0.0 | 3.2 | 0.00 | 0.05 | 0.05 | 90 | 1016.6 |
| 20260510125052 | 24 | 0 | 1.6 | 4.8 | 0.00 | 0.05 | 0.05 | 91 | 1016.7 |
| 20260510124600 | 23 | 0 | 0.0 | 4.8 | 0.00 | 0.05 | 0.05 | 91 | 1016.7 |
| 20260510124052 | 23 | 0 | 0.0 | 4.8 | 0.00 | 0.05 | 0.05 | 91 | 1016.8 |
| 20260510123553 | 23 | 0 | 0.0 | 4.8 | 0.00 | 0.05 | 0.05 | 91 | 1016.8 |
| 20260510123056 | 23 | 0 | 0.0 | 4.8 | 0.00 | 0.05 | 0.05 | 91 | 1016.5 |
| 20260510122552 | 23 | 119 | 0.0 | 1.6 | 0.00 | 0.05 | 0.05 | 92 | 1016.6 |
| 20260510122052 | 23 | 0 | 0.0 | 1.6 | 0.00 | 0.05 | 0.05 | 91 | 1016.5 |
| 20260510121557 | 23 | 0 | 0.0 | 1.6 | 0.00 | 0.05 | 0.05 | 91 | 1016.5 |
| 20260510121052 | 23 | 0 | 0.0 | 0.0 | 0.00 | 0.05 | 0.05 | 92 | 1016.5 |
| 20260510120552 | 23 | 0 | 0.0 | 0.0 | 0.00 | 0.05 | 0.05 | 92 | 1016.5 |
| 20260510115553 | 23 | 0 | 0.0 | 0.0 | 0.00 | 0.05 | 0.05 | 92 | 1016.3 |
| 20260510115050 | 23 | 0 | 0.0 | 0.0 | 0.00 | 0.05 | 0.05 | 92 | 1016.1 |
| 20260510114608 | 23 | 0 | 0.0 | 0.0 | 0.00 | 0.05 | 0.05 | 92 | 1016.0 |